| time (UTC) | temp F | wind direction | speed knots | gust knots | rain 1hr in | rain 24hr in | rain mn in | humidity % | barometer mb |
| 20260904212042 | 92 | 75 | 5.2 | 11.3 | 0.00 | 0.00 | 0.00 | 20 | 1014.1 |
| 20260904211044 | 92 | 70 | 3.5 | 13.9 | 0.00 | 0.00 | 0.00 | 21 | 1014.1 |
| 20260904210041 | 92 | 8 | 3.5 | 9.6 | 0.00 | 0.00 | 0.00 | 20 | 1014.3 |
| 20260904205042 | 91 | 72 | 5.2 | 13.0 | 0.00 | 0.00 | 0.00 | 20 | 1014.4 |
| 20260904204038 | 91 | 68 | 5.2 | 11.3 | 0.00 | 0.00 | 0.00 | 19 | 1014.4 |
| 20260904203040 | 92 | 90 | 5.2 | 12.2 | 0.00 | 0.00 | 0.00 | 20 | 1014.6 |
| 20260904202039 | 90 | 56 | 8.7 | 16.5 | 0.00 | 0.00 | 0.00 | 20 | 1014.6 |
| 20260904201039 | 91 | 90 | 5.2 | 11.3 | 0.00 | 0.00 | 0.00 | 20 | 1014.8 |
| 20260904200036 | 91 | 56 | 5.2 | 11.3 | 0.00 | 0.00 | 0.00 | 21 | 1014.8 |
| 20260904195037 | 90 | 48 | 6.1 | 15.6 | 0.00 | 0.00 | 0.00 | 21 | 1015.0 |
| 20260904194037 | 90 | 116 | 6.1 | 13.0 | 0.00 | 0.00 | 0.00 | 21 | 1015.0 |
| 20260904193036 | 90 | 92 | 7.0 | 15.6 | 0.00 | 0.00 | 0.00 | 21 | 1015.0 |
| 20260904192038 | 90 | 62 | 5.2 | 13.9 | 0.00 | 0.00 | 0.00 | 21 | 1015.0 |
| 20260904191959 | 90 | 47 | 6.1 | 13.9 | 0.00 | 0.00 | 0.00 | 22 | 1015.0 |
| 20260904190038 | 90 | 53 | 4.3 | 10.4 | 0.00 | 0.00 | 0.00 | 22 | 1015.1 |
| 20260904185029 | 90 | 92 | 3.5 | 10.4 | 0.00 | 0.00 | 0.00 | 23 | 1015.2 |
| 20260904184029 | 90 | 60 | 1.7 | 7.0 | 0.00 | 0.00 | 0.00 | 22 | 1015.3 |
| 20260904183957 | 89 | 76 | 3.5 | 9.6 | 0.00 | 0.00 | 0.00 | 23 | 1015.5 |
| 20260904182520 | 88 | 46 | 2.6 | 7.0 | 0.00 | 0.00 | 0.00 | 23 | 1015.7 |
| 20260904181030 | 88 | 47 | 4.3 | 11.3 | 0.00 | 0.00 | 0.00 | 24 | 1015.8 |
| 20260904180029 | 88 | 113 | 4.3 | 8.7 | 0.00 | 0.00 | 0.00 | 25 | 1015.8 |
| 20260904175030 | 87 | 47 | 3.5 | 8.7 | 0.00 | 0.00 | 0.00 | 25 | 1015.9 |
| 20260904174028 | 88 | 53 | 1.7 | 5.2 | 0.00 | 0.00 | 0.00 | 28 | 1015.9 |
| 20260904173029 | 87 | 59 | 1.7 | 5.2 | 0.00 | 0.00 | 0.00 | 28 | 1016.2 |
| 20260904172023 | 86 | 55 | 1.7 | 4.3 | 0.00 | 0.00 | 0.00 | 29 | 1016.2 |
| 20260904171022 | 85 | 47 | 1.7 | 5.2 | 0.00 | 0.00 | 0.00 | 28 | 1016.3 |
| 20260904170946 | 85 | 70 | 0.9 | 4.3 | 0.00 | 0.00 | 0.00 | 33 | 1016.3 |
| 20260904165937 | 83 | 129 | 1.7 | 7.0 | 0.00 | 0.00 | 0.00 | 34 | 1016.3 |
| 20260904164022 | 83 | 53 | 0.9 | 3.5 | 0.00 | 0.00 | 0.00 | 33 | 1016.4 |
| 20260904163458 | 81 | 81 | 0.0 | 5.2 | 0.00 | 0.00 | 0.00 | 34 | 1016.4 |
| 20260904162021 | 79 | 44 | 0.9 | 3.5 | 0.00 | 0.00 | 0.00 | 36 | 1016.5 |
| 20260904161022 | 79 | 295 | 0.9 | 4.3 | 0.00 | 0.00 | 0.00 | 35 | 1016.5 |
| 20260904160024 | 79 | 90 | 0.0 | 1.7 | 0.00 | 0.00 | 0.00 | 37 | 1016.5 |
| 20260904155500 | 78 | 82 | 0.9 | 3.5 | 0.00 | 0.00 | 0.00 | 37 | 1016.4 |
| 20260904154502 | 76 | 20 | 0.9 | 3.5 | 0.00 | 0.00 | 0.00 | 39 | 1016.5 |
| 20260904153021 | 75 | 318 | 0.9 | 3.5 | 0.00 | 0.00 | 0.00 | 39 | 1016.5 |
| 20260904152020 | 74 | 310 | 0.9 | 3.5 | 0.00 | 0.00 | 0.00 | 40 | 1016.4 |
| 20260904151020 | 74 | 297 | 0.9 | 2.6 | 0.00 | 0.00 | 0.00 | 42 | 1016.4 |
| 20260904150021 | 73 | 299 | 0.9 | 3.5 | 0.00 | 0.00 | 0.00 | 43 | 1016.3 |
| 20260904145020 | 72 | 341 | 0.9 | 2.6 | 0.00 | 0.00 | 0.00 | 46 | 1016.4 |
| 20260904144020 | 71 | 259 | 0.9 | 2.6 | 0.00 | 0.00 | 0.00 | 48 | 1016.3 |
| 20260904143018 | 70 | 269 | 0.9 | 2.6 | 0.00 | 0.00 | 0.00 | 53 | 1016.3 |
| 20260904142019 | 69 | 242 | 0.0 | 1.7 | 0.00 | 0.00 | 0.00 | 55 | 1016.3 |
| 20260904141019 | 67 | 243 | 0.0 | 1.7 | 0.00 | 0.00 | 0.00 | 55 | 1016.3 |
| 20260904140019 | 66 | 340 | 0.0 | 1.7 | 0.00 | 0.00 | 0.00 | 59 | 1016.0 |
| 20260904135506 | 65 | 13 | 0.9 | 1.7 | 0.00 | 0.00 | 0.00 | 57 | 1015.9 |
| 20260904134017 | 64 | 176 | 0.9 | 2.6 | 0.00 | 0.00 | 0.00 | 55 | 1015.7 |
| 20260904133019 | 63 | 252 | 0.0 | 0.9 | 0.00 | 0.00 | 0.00 | 60 | 1015.7 |
| 20260904132505 | 61 | 252 | 0.9 | 2.6 | 0.00 | 0.00 | 0.00 | 59 | 1015.6 |
| 20260904131019 | 59 | 262 | 0.0 | 1.7 | 0.00 | 0.00 | 0.00 | 66 | 1015.5 |
| 20260904130013 | 58 | 296 | 0.9 | 2.6 | 0.00 | 0.00 | 0.00 | 67 | 1015.5 |
| 20260904125012 | 58 | 187 | 0.0 | 0.0 | 0.00 | 0.00 | 0.00 | 68 | 1015.2 |
| 20260904124013 | 57 | 187 | 0.0 | 0.0 | 0.00 | 0.00 | 0.00 | 69 | 1015.2 |
| 20260904123012 | 58 | 178 | 0.0 | 0.0 | 0.00 | 0.00 | 0.00 | 68 | 1015.1 |
| 20260904122013 | 57 | 141 | 0.0 | 0.0 | 0.00 | 0.00 | 0.00 | 66 | 1015.0 |
| 20260904121011 | 57 | 165 | 0.0 | 0.0 | 0.00 | 0.00 | 0.00 | 64 | 1015.0 |
| 20260904120013 | 58 | 188 | 0.0 | 0.0 | 0.00 | 0.00 | 0.00 | 62 | 1014.8 |
| 20260904115012 | 58 | 188 | 0.0 | 0.0 | 0.00 | 0.00 | 0.00 | 62 | 1014.8 |
| 20260904114013 | 58 | 105 | 0.0 | 0.0 | 0.00 | 0.00 | 0.00 | 63 | 1014.5 |
| 20260904113010 | 56 | 86 | 0.0 | 0.0 | 0.00 | 0.00 | 0.00 | 70 | 1014.5 |
| 20260904112011 | 56 | 209 | 0.0 | 0.0 | 0.00 | 0.00 | 0.00 | 71 | 1014.5 |
| 20260904111447 | 57 | 210 | 0.0 | 0.0 | 0.00 | 0.00 | 0.00 | 70 | 1014.5 |
| 20260904110008 | 56 | 210 | 0.0 | 0.0 | 0.00 | 0.00 | 0.00 | 71 | 1014.5 |
| 20260904105007 | 56 | 93 | 0.0 | 0.9 | 0.00 | 0.00 | 0.00 | 70 | 1014.4 |
| 20260904104009 | 58 | 92 | 0.0 | 0.9 | 0.00 | 0.00 | 0.00 | 69 | 1014.4 |
| 20260904103009 | 57 | 226 | 0.0 | 1.7 | 0.00 | 0.00 | 0.00 | 71 | 1014.2 |
| 20260904102452 | 57 | 153 | 0.0 | 0.0 | 0.00 | 0.00 | 0.00 | 70 | 1014.1 |
| 20260904101008 | 57 | 153 | 0.0 | 0.0 | 0.00 | 0.00 | 0.00 | 69 | 1014.2 |
| 20260904100009 | 58 | 154 | 0.0 | 0.0 | 0.00 | 0.00 | 0.00 | 67 | 1014.2 |
| 20260904095009 | 58 | 154 | 0.0 | 0.0 | 0.00 | 0.00 | 0.00 | 67 | 1014.1 |
| 20260904094007 | 58 | 153 | 0.0 | 0.0 | 0.00 | 0.00 | 0.00 | 68 | 1013.9 |
| 20260904093009 | 58 | 153 | 0.0 | 0.0 | 0.00 | 0.00 | 0.00 | 67 | 1013.9 |
| 20260904092008 | 59 | 153 | 0.0 | 0.0 | 0.00 | 0.00 | 0.00 | 63 | 1013.8 |
| 20260904091011 | 60 | 153 | 0.0 | 0.0 | 0.00 | 0.00 | 0.00 | 60 | 1013.8 |
| 20260904090008 | 60 | 153 | 0.0 | 0.0 | 0.00 | 0.00 | 0.00 | 59 | 1013.8 |
| 20260904085008 | 61 | 153 | 0.0 | 2.6 | 0.00 | 0.00 | 0.00 | 59 | 1013.8 |
| 20260904084007 | 60 | 296 | 0.0 | 0.9 | 0.00 | 0.00 | 0.00 | 59 | 1013.7 |
| 20260904083454 | 60 | 296 | 0.0 | 0.0 | 0.00 | 0.00 | 0.00 | 59 | 1013.6 |
| 20260904082008 | 61 | 296 | 0.0 | 0.0 | 0.00 | 0.00 | 0.00 | 60 | 1013.7 |
| 20260904081007 | 62 | 296 | 0.0 | 0.9 | 0.00 | 0.00 | 0.00 | 58 | 1013.6 |
| 20260904080005 | 64 | 297 | 0.0 | 0.9 | 0.00 | 0.00 | 0.00 | 53 | 1013.6 |
| 20260904075447 | 63 | 296 | 0.0 | 0.9 | 0.00 | 0.00 | 0.00 | 56 | 1013.6 |
| 20260904074001 | 64 | 296 | 0.0 | 0.9 | 0.00 | 0.00 | 0.00 | 56 | 1013.7 |
| 20260904073000 | 65 | 296 | 0.9 | 2.6 | 0.00 | 0.00 | 0.00 | 55 | 1013.7 |
| 20260904072000 | 64 | 299 | 0.9 | 2.6 | 0.00 | 0.00 | 0.00 | 58 | 1013.8 |
| 20260904070959 | 64 | 81 | 0.9 | 1.7 | 0.00 | 0.00 | 0.00 | 56 | 1013.9 |
| 20260904070445 | 65 | 81 | 0.0 | 0.0 | 0.00 | 0.00 | 0.00 | 54 | 1014.1 |
| 20260904065434 | 65 | 81 | 0.0 | 0.0 | 0.00 | 0.00 | 0.00 | 55 | 1014.1 |
| 20260904064436 | 66 | 81 | 0.0 | 0.0 | 0.00 | 0.00 | 0.00 | 51 | 1013.9 |
| 20260904062959 | 67 | 81 | 0.9 | 3.5 | 0.00 | 0.00 | 0.00 | 50 | 1014.1 |
| 20260904062915 | 66 | 82 | 1.7 | 6.1 | 0.00 | 0.00 | 0.00 | 51 | 1013.9 |
| 20260904060955 | 66 | 63 | 4.3 | 7.8 | 0.00 | 0.00 | 0.00 | 54 | 1014.1 |
| 20260904060445 | 67 | 72 | 0.0 | 1.7 | 0.00 | 0.00 | 0.00 | 48 | 1013.6 |
| 20260904054954 | 67 | 301 | 0.0 | 0.0 | 0.00 | 0.00 | 0.00 | 48 | 1013.4 |
| 20260904053953 | 68 | 301 | 0.0 | 0.9 | 0.00 | 0.00 | 0.00 | 47 | 1013.2 |
| 20260904052953 | 68 | 301 | 0.0 | 1.7 | 0.00 | 0.00 | 0.00 | 48 | 1013.2 |
| 20260904051953 | 69 | 302 | 0.0 | 0.0 | 0.00 | 0.00 | 0.00 | 47 | 1013.2 |
| 20260904050953 | 71 | 302 | 0.0 | 2.6 | 0.00 | 0.00 | 0.00 | 45 | 1013.1 |
| 20260904045954 | 70 | 262 | 0.0 | 0.9 | 0.00 | 0.00 | 0.00 | 45 | 1013.2 |
| 20260904044954 | 71 | 260 | 0.0 | 0.0 | 0.00 | 0.00 | 0.00 | 41 | 1013.2 |
| 20260904043948 | 72 | 260 | 0.0 | 0.0 | 0.00 | 0.00 | 0.00 | 40 | 1013.2 |
| 20260904042947 | 74 | 261 | 0.9 | 3.5 | 0.00 | 0.00 | 0.00 | 38 | 1013.2 |
| 20260904041948 | 75 | 304 | 0.9 | 2.6 | 0.00 | 0.00 | 0.00 | 37 | 1013.2 |
| 20260904041921 | 75 | 260 | 0.9 | 3.5 | 0.00 | 0.00 | 0.00 | 36 | 1013.2 |
| 20260904035947 | 75 | 250 | 2.6 | 5.2 | 0.00 | 0.00 | 0.00 | 36 | 1013.4 |
| 20260904034947 | 76 | 233 | 2.6 | 5.2 | 0.00 | 0.00 | 0.00 | 38 | 1013.4 |
| 20260904033948 | 77 | 309 | 2.6 | 6.1 | 0.00 | 0.00 | 0.00 | 38 | 1013.5 |
| 20260904032946 | 78 | 301 | 3.5 | 7.0 | 0.00 | 0.00 | 0.00 | 37 | 1013.4 |
| 20260904031948 | 78 | 297 | 4.3 | 9.6 | 0.00 | 0.00 | 0.00 | 36 | 1013.4 |
| 20260904030942 | 78 | 261 | 3.5 | 7.8 | 0.00 | 0.00 | 0.00 | 37 | 1013.4 |
| 20260904025941 | 78 | 263 | 3.5 | 6.1 | 0.00 | 0.00 | 0.00 | 37 | 1013.4 |
| 20260904024942 | 78 | 281 | 3.5 | 7.0 | 0.00 | 0.00 | 0.00 | 37 | 1013.4 |
| 20260904023942 | 78 | 257 | 3.5 | 6.1 | 0.00 | 0.00 | 0.00 | 37 | 1013.2 |
| 20260904023418 | 78 | 266 | 3.5 | 6.1 | 0.00 | 0.00 | 0.00 | 37 | 1013.2 |
| 20260904021941 | 78 | 323 | 3.5 | 8.7 | 0.00 | 0.00 | 0.00 | 35 | 1013.1 |
| 20260904021912 | 78 | 295 | 2.6 | 6.1 | 0.00 | 0.00 | 0.00 | 36 | 1012.9 |
| 20260904015942 | 80 | 240 | 1.7 | 4.3 | 0.00 | 0.00 | 0.00 | 35 | 1012.9 |
| 20260904014944 | 81 | 342 | 1.7 | 4.3 | 0.00 | 0.00 | 0.00 | 33 | 1012.7 |
| 20260904013936 | 82 | 339 | 1.7 | 5.2 | 0.00 | 0.00 | 0.00 | 32 | 1012.7 |
| 20260904012935 | 82 | 340 | 1.7 | 5.2 | 0.00 | 0.00 | 0.00 | 31 | 1012.7 |
| 20260904011935 | 83 | 46 | 1.7 | 4.3 | 0.00 | 0.00 | 0.00 | 30 | 1012.7 |
| 20260904010936 | 84 | 301 | 1.7 | 7.8 | 0.00 | 0.00 | 0.00 | 28 | 1012.5 |
| 20260904005935 | 85 | 334 | 0.9 | 4.3 | 0.00 | 0.00 | 0.00 | 27 | 1012.5 |
| 20260904004936 | 86 | 46 | 0.9 | 3.5 | 0.00 | 0.00 | 0.00 | 26 | 1012.5 |
| 20260904004421 | 88 | 51 | 0.0 | 0.9 | 0.00 | 0.00 | 0.00 | 25 | 1012.4 |
| 20260904002935 | 88 | 51 | 0.0 | 1.7 | 0.00 | 0.00 | 0.00 | 24 | 1012.4 |
| 20260904001936 | 89 | 51 | 0.0 | 2.6 | 0.00 | 0.00 | 0.00 | 24 | 1012.5 |
| 20260904000931 | 89 | 7 | 0.9 | 7.0 | 0.00 | 0.00 | 0.00 | 22 | 1012.4 |
| 20260903235930 | 91 | 46 | 0.9 | 7.0 | 0.00 | 0.00 | 0.00 | 21 | 1012.4 |
| 20260903234932 | 91 | 44 | 0.9 | 3.5 | 0.00 | 0.00 | 0.00 | 22 | 1012.3 |
| 20260903233929 | 91 | 44 | 1.7 | 7.0 | 0.00 | 0.00 | 0.00 | 22 | 1012.4 |
| 20260903232930 | 92 | 69 | 0.9 | 4.3 | 0.00 | 0.00 | 0.00 | 22 | 1012.3 |
| 20260903231930 | 92 | 80 | 0.0 | 3.5 | 0.00 | 0.00 | 0.00 | 21 | 1012.2 |
| 20260903230924 | 92 | 47 | 0.9 | 3.5 | 0.00 | 0.00 | 0.00 | 20 | 1012.3 |
| 20260903225925 | 90 | 47 | 2.6 | 7.8 | 0.00 | 0.00 | 0.00 | 21 | 1012.4 |
| 20260903224925 | 91 | 191 | 0.9 | 4.3 | 0.00 | 0.00 | 0.00 | 21 | 1012.4 |
| 20260903223924 | 91 | 47 | 1.7 | 6.1 | 0.00 | 0.00 | 0.00 | 21 | 1012.5 |
| 20260903222926 | 91 | 294 | 1.7 | 8.7 | 0.00 | 0.00 | 0.00 | 21 | 1012.5 |
| 20260903221925 | 90 | 184 | 1.7 | 8.7 | 0.00 | 0.00 | 0.00 | 21 | 1012.7 |
| 20260903221402 | 90 | 65 | 2.6 | 8.7 | 0.00 | 0.00 | 0.00 | 22 | 1012.9 |
| 20260903215926 | 90 | 69 | 1.7 | 6.1 | 0.00 | 0.00 | 0.00 | 22 | 1012.9 |
| 20260903214924 | 89 | 224 | 4.3 | 11.3 | 0.00 | 0.00 | 0.00 | 22 | 1013.0 |
| 20260903214413 | 89 | 57 | 7.0 | 13.0 | 0.00 | 0.00 | 0.00 | 23 | 1013.1 |